| time (UTC) | temp C | wind direction | speed KPH | gust KPH | rain 1hr cm | rain 24hr cm | rain mn cm | humidity % | barometer mb |
| 20260906145523 | 22 | 141 | 6.4 | 16.1 | 0.00 | 0.00 | 0.00 | 73 | 1021.9 |
| 20260906145023 | 22 | 113 | 6.4 | 14.5 | 0.00 | 0.00 | 0.00 | 73 | 1021.9 |
| 20260906144539 | 22 | 71 | 4.8 | 14.5 | 0.00 | 0.00 | 0.00 | 75 | 1021.9 |
| 20260906144020 | 22 | 146 | 4.8 | 14.5 | 0.00 | 0.00 | 0.00 | 73 | 1021.9 |
| 20260906143523 | 22 | 177 | 4.8 | 17.7 | 0.00 | 0.00 | 0.00 | 75 | 1021.8 |
| 20260906143038 | 22 | 52 | 3.2 | 17.7 | 0.00 | 0.00 | 0.00 | 77 | 1021.8 |
| 20260906142523 | 22 | 165 | 3.2 | 12.9 | 0.00 | 0.00 | 0.00 | 77 | 1021.8 |
| 20260906142024 | 22 | 142 | 3.2 | 9.7 | 0.00 | 0.00 | 0.00 | 76 | 1021.9 |
| 20260906141541 | 22 | 130 | 4.8 | 11.3 | 0.00 | 0.00 | 0.00 | 77 | 1021.9 |
| 20260906141021 | 21 | 111 | 4.8 | 11.3 | 0.00 | 0.00 | 0.00 | 78 | 1021.9 |
| 20260906140521 | 21 | 137 | 3.2 | 11.3 | 0.00 | 0.00 | 0.00 | 80 | 1021.9 |
| 20260906140045 | 21 | 92 | 3.2 | 11.3 | 0.00 | 0.00 | 0.00 | 82 | 1021.8 |
| 20260906135516 | 21 | 145 | 3.2 | 8.0 | 0.00 | 0.00 | 0.00 | 82 | 1021.8 |
| 20260906135015 | 21 | 152 | 3.2 | 8.0 | 0.00 | 0.00 | 0.00 | 83 | 1021.7 |
| 20260906134538 | 21 | 62 | 1.6 | 4.8 | 0.00 | 0.00 | 0.00 | 84 | 1021.8 |
| 20260906134020 | 20 | 96 | 1.6 | 4.8 | 0.00 | 0.00 | 0.00 | 85 | 1021.8 |
| 20260906133518 | 20 | 47 | 1.6 | 4.8 | 0.00 | 0.00 | 0.00 | 86 | 1021.7 |
| 20260906133058 | 20 | 65 | 0.0 | 4.8 | 0.00 | 0.00 | 0.00 | 87 | 1021.7 |
| 20260906132519 | 20 | 133 | 1.6 | 4.8 | 0.00 | 0.00 | 0.00 | 87 | 1021.7 |
| 20260906132017 | 20 | 51 | 1.6 | 4.8 | 0.00 | 0.00 | 0.00 | 88 | 1021.7 |
| 20260906131540 | 20 | 91 | 0.0 | 3.2 | 0.00 | 0.00 | 0.00 | 88 | 1021.8 |
| 20260906131020 | 19 | 150 | 0.0 | 3.2 | 0.00 | 0.00 | 0.00 | 88 | 1021.7 |
| 20260906130517 | 19 | 121 | 0.0 | 3.2 | 0.00 | 0.00 | 0.00 | 90 | 1021.7 |
| 20260906130041 | 18 | 61 | 1.6 | 3.2 | 0.00 | 0.00 | 0.00 | 92 | 1021.5 |
| 20260906125517 | 18 | 51 | 0.0 | 3.2 | 0.00 | 0.00 | 0.00 | 93 | 1021.6 |
| 20260906125019 | 18 | 58 | 0.0 | 3.2 | 0.00 | 0.00 | 0.00 | 93 | 1021.5 |
| 20260906124543 | 18 | 72 | 0.0 | 3.2 | 0.00 | 0.00 | 0.00 | 94 | 1021.2 |
| 20260906124016 | 18 | 69 | 0.0 | 3.2 | 0.00 | 0.00 | 0.00 | 94 | 1021.1 |
| 20260906123518 | 17 | 0 | 0.0 | 1.6 | 0.00 | 0.00 | 0.00 | 95 | 1021.0 |
| 20260906123043 | 17 | 0 | 0.0 | 3.2 | 0.00 | 0.00 | 0.00 | 95 | 1020.9 |
| 20260906122520 | 17 | 0 | 0.0 | 3.2 | 0.00 | 0.00 | 0.00 | 95 | 1020.9 |
| 20260906122021 | 17 | 130 | 0.0 | 3.2 | 0.00 | 0.00 | 0.00 | 96 | 1020.8 |
| 20260906121536 | 16 | 0 | 0.0 | 3.2 | 0.00 | 0.00 | 0.00 | 96 | 1020.9 |
| 20260906121019 | 16 | 0 | 0.0 | 3.2 | 0.00 | 0.00 | 0.00 | 95 | 1020.8 |
| 20260906120521 | 16 | 0 | 0.0 | 3.2 | 0.00 | 0.00 | 0.00 | 95 | 1020.7 |
| 20260906120045 | 16 | 49 | 0.0 | 3.2 | 0.00 | 0.00 | 0.00 | 95 | 1020.6 |
| 20260906115516 | 16 | 49 | 0.0 | 3.2 | 0.00 | 0.00 | 0.00 | 95 | 1020.6 |
| 20260906115019 | 16 | 49 | 0.0 | 3.2 | 0.00 | 0.00 | 0.00 | 95 | 1020.6 |
| 20260906114541 | 16 | 49 | 0.0 | 1.6 | 0.00 | 0.00 | 0.00 | 95 | 1020.5 |
| 20260906114018 | 16 | 49 | 0.0 | 1.6 | 0.00 | 0.00 | 0.00 | 95 | 1020.4 |
| 20260906113518 | 16 | 49 | 1.6 | 3.2 | 0.00 | 0.00 | 0.00 | 95 | 1020.4 |
| 20260906113043 | 16 | 49 | 1.6 | 3.2 | 0.00 | 0.00 | 0.00 | 95 | 1020.3 |
| 20260906112520 | 16 | 74 | 0.0 | 3.2 | 0.00 | 0.00 | 0.00 | 95 | 1020.1 |
| 20260906112020 | 16 | 57 | 0.0 | 3.2 | 0.00 | 0.00 | 0.00 | 95 | 1020.1 |
| 20260906111550 | 16 | 83 | 0.0 | 3.2 | 0.00 | 0.00 | 0.00 | 95 | 1020.1 |
| 20260906111019 | 15 | 0 | 0.0 | 3.2 | 0.00 | 0.00 | 0.00 | 95 | 1020.0 |
| 20260906110519 | 15 | 109 | 0.0 | 1.6 | 0.00 | 0.00 | 0.00 | 95 | 1020.0 |
| 20260906110046 | 15 | 0 | 0.0 | 1.6 | 0.00 | 0.00 | 0.00 | 95 | 1020.0 |
| 20260906105517 | 15 | 0 | 0.0 | 1.6 | 0.00 | 0.00 | 0.00 | 95 | 1019.9 |
| 20260906105021 | 16 | 0 | 0.0 | 3.2 | 0.00 | 0.00 | 0.00 | 95 | 1019.9 |
| 20260906104537 | 16 | 0 | 0.0 | 3.2 | 0.00 | 0.00 | 0.00 | 95 | 1020.0 |
| 20260906104020 | 16 | 109 | 0.0 | 1.6 | 0.00 | 0.00 | 0.00 | 95 | 1019.9 |
| 20260906103518 | 16 | 96 | 0.0 | 3.2 | 0.00 | 0.00 | 0.00 | 95 | 1019.9 |
| 20260906103036 | 16 | 90 | 0.0 | 3.2 | 0.00 | 0.00 | 0.00 | 95 | 1020.0 |
| 20260906102517 | 16 | 100 | 0.0 | 3.2 | 0.00 | 0.00 | 0.00 | 94 | 1019.9 |
| 20260906102018 | 16 | 80 | 0.0 | 3.2 | 0.00 | 0.00 | 0.00 | 95 | 1020.0 |
| 20260906101538 | 16 | 67 | 0.0 | 3.2 | 0.00 | 0.00 | 0.00 | 95 | 1020.0 |
| 20260906101016 | 16 | 47 | 0.0 | 3.2 | 0.00 | 0.00 | 0.00 | 95 | 1019.9 |
| 20260906100523 | 16 | 0 | 0.0 | 1.6 | 0.00 | 0.00 | 0.00 | 95 | 1019.9 |
| 20260906100039 | 16 | 0 | 0.0 | 1.6 | 0.00 | 0.00 | 0.00 | 94 | 1019.9 |
| 20260906095517 | 16 | 0 | 0.0 | 1.6 | 0.00 | 0.00 | 0.00 | 94 | 1019.9 |
| 20260906095023 | 16 | 0 | 0.0 | 3.2 | 0.00 | 0.00 | 0.00 | 94 | 1019.7 |
| 20260906094535 | 16 | 47 | 1.6 | 3.2 | 0.00 | 0.00 | 0.00 | 94 | 1019.7 |
| 20260906094019 | 16 | 71 | 0.0 | 3.2 | 0.00 | 0.00 | 0.00 | 94 | 1019.7 |
| 20260906093519 | 16 | 69 | 1.6 | 3.2 | 0.00 | 0.00 | 0.00 | 94 | 1019.7 |
| 20260906093046 | 16 | 64 | 0.0 | 3.2 | 0.00 | 0.00 | 0.00 | 94 | 1019.8 |
| 20260906092516 | 16 | 22 | 0.0 | 3.2 | 0.00 | 0.00 | 0.00 | 94 | 1019.7 |
| 20260906092016 | 16 | 0 | 0.0 | 3.2 | 0.00 | 0.00 | 0.00 | 94 | 1019.8 |
| 20260906091538 | 16 | 0 | 1.6 | 3.2 | 0.00 | 0.00 | 0.00 | 94 | 1019.7 |
| 20260906091021 | 16 | 9 | 1.6 | 3.2 | 0.00 | 0.00 | 0.00 | 94 | 1019.8 |
| 20260906090518 | 16 | 0 | 0.0 | 3.2 | 0.00 | 0.00 | 0.00 | 93 | 1019.7 |
| 20260906090107 | 16 | 51 | 1.6 | 6.4 | 0.00 | 0.00 | 0.00 | 93 | 1019.6 |
| 20260906085520 | 16 | 63 | 1.6 | 6.4 | 0.00 | 0.00 | 0.00 | 93 | 1019.4 |
| 20260906085022 | 16 | 83 | 1.6 | 4.8 | 0.00 | 0.00 | 0.00 | 93 | 1019.5 |
| 20260906084536 | 17 | 42 | 1.6 | 4.8 | 0.00 | 0.00 | 0.00 | 93 | 1019.6 |
| 20260906084020 | 17 | 24 | 1.6 | 4.8 | 0.00 | 0.00 | 0.00 | 93 | 1019.6 |
| 20260906083518 | 17 | 5 | 1.6 | 6.4 | 0.00 | 0.00 | 0.00 | 93 | 1019.7 |
| 20260906083041 | 17 | 55 | 1.6 | 6.4 | 0.00 | 0.00 | 0.00 | 93 | 1019.6 |
| 20260906082516 | 17 | 352 | 3.2 | 6.4 | 0.00 | 0.00 | 0.00 | 93 | 1019.7 |
| 20260906082017 | 17 | 15 | 3.2 | 6.4 | 0.00 | 0.00 | 0.00 | 93 | 1019.7 |
| 20260906081539 | 17 | 12 | 3.2 | 6.4 | 0.00 | 0.00 | 0.00 | 93 | 1019.6 |
| 20260906081020 | 17 | 9 | 1.6 | 8.0 | 0.00 | 0.00 | 0.00 | 93 | 1019.6 |
| 20260906080524 | 17 | 19 | 3.2 | 8.0 | 0.00 | 0.00 | 0.00 | 94 | 1019.7 |
| 20260906080040 | 17 | 336 | 1.6 | 3.2 | 0.00 | 0.00 | 0.00 | 94 | 1019.5 |
| 20260906075517 | 17 | 336 | 1.6 | 4.8 | 0.00 | 0.00 | 0.00 | 94 | 1019.5 |
| 20260906075017 | 17 | 321 | 1.6 | 4.8 | 0.00 | 0.00 | 0.00 | 94 | 1019.6 |
| 20260906074548 | 17 | 334 | 3.2 | 4.8 | 0.00 | 0.00 | 0.00 | 94 | 1019.6 |
| 20260906074018 | 17 | 319 | 1.6 | 4.8 | 0.00 | 0.00 | 0.00 | 94 | 1019.6 |
| 20260906073518 | 17 | 330 | 3.2 | 4.8 | 0.00 | 0.00 | 0.00 | 94 | 1019.6 |
| 20260906073036 | 16 | 9 | 1.6 | 4.8 | 0.00 | 0.00 | 0.00 | 94 | 1019.6 |
| 20260906072517 | 16 | 350 | 1.6 | 4.8 | 0.00 | 0.00 | 0.00 | 94 | 1019.4 |
| 20260906072019 | 16 | 360 | 3.2 | 4.8 | 0.00 | 0.00 | 0.00 | 94 | 1019.3 |
| 20260906071539 | 16 | 15 | 1.6 | 3.2 | 0.00 | 0.00 | 0.00 | 93 | 1019.2 |
| 20260906071021 | 16 | 343 | 1.6 | 3.2 | 0.00 | 0.00 | 0.00 | 93 | 1019.3 |
| 20260906070516 | 16 | 0 | 0.0 | 3.2 | 0.00 | 0.00 | 0.00 | 93 | 1019.2 |
| 20260906070041 | 16 | 0 | 0.0 | 3.2 | 0.00 | 0.00 | 0.00 | 93 | 1019.2 |
| 20260906065524 | 16 | 324 | 1.6 | 3.2 | 0.00 | 0.00 | 0.00 | 93 | 1019.3 |
| 20260906065025 | 16 | 327 | 1.6 | 4.8 | 0.00 | 0.00 | 0.00 | 93 | 1019.3 |
| 20260906064536 | 17 | 352 | 1.6 | 4.8 | 0.00 | 0.00 | 0.00 | 93 | 1019.3 |
| 20260906064019 | 17 | 360 | 1.6 | 8.0 | 0.00 | 0.00 | 0.00 | 93 | 1019.4 |
| 20260906063521 | 17 | 352 | 1.6 | 8.0 | 0.00 | 0.00 | 0.00 | 93 | 1019.4 |
| 20260906063040 | 16 | 323 | 1.6 | 6.4 | 0.00 | 0.00 | 0.00 | 93 | 1019.4 |
| 20260906062516 | 16 | 352 | 1.6 | 4.8 | 0.00 | 0.00 | 0.00 | 94 | 1019.4 |
| 20260906062021 | 16 | 322 | 1.6 | 4.8 | 0.00 | 0.00 | 0.00 | 93 | 1019.3 |
| 20260906061547 | 16 | 346 | 1.6 | 4.8 | 0.00 | 0.00 | 0.00 | 93 | 1019.4 |
| 20260906061021 | 16 | 349 | 1.6 | 6.4 | 0.00 | 0.00 | 0.00 | 94 | 1019.3 |
| 20260906060519 | 16 | 323 | 3.2 | 6.4 | 0.00 | 0.00 | 0.00 | 94 | 1019.2 |
| 20260906060039 | 16 | 328 | 3.2 | 6.4 | 0.00 | 0.00 | 0.00 | 94 | 1019.0 |
| 20260906055519 | 16 | 318 | 1.6 | 3.2 | 0.00 | 0.00 | 0.00 | 93 | 1019.2 |
| 20260906055020 | 16 | 341 | 1.6 | 3.2 | 0.00 | 0.00 | 0.00 | 93 | 1019.1 |
| 20260906054544 | 16 | 0 | 0.0 | 3.2 | 0.00 | 0.00 | 0.00 | 93 | 1019.0 |
| 20260906054018 | 16 | 352 | 0.0 | 3.2 | 0.00 | 0.00 | 0.00 | 93 | 1019.0 |
| 20260906053517 | 16 | 34 | 0.0 | 3.2 | 0.00 | 0.00 | 0.00 | 93 | 1019.0 |
| 20260906053037 | 16 | 9 | 1.6 | 3.2 | 0.00 | 0.00 | 0.00 | 93 | 1019.1 |
| 20260906052520 | 16 | 9 | 1.6 | 3.2 | 0.00 | 0.00 | 0.00 | 93 | 1019.1 |
| 20260906052020 | 17 | 350 | 1.6 | 4.8 | 0.00 | 0.00 | 0.00 | 93 | 1019.1 |
| 20260906051541 | 17 | 301 | 1.6 | 4.8 | 0.00 | 0.00 | 0.00 | 92 | 1019.1 |
| 20260906051016 | 17 | 35 | 1.6 | 6.4 | 0.00 | 0.00 | 0.00 | 92 | 1019.1 |
| 20260906050518 | 17 | 348 | 1.6 | 6.4 | 0.00 | 0.00 | 0.00 | 92 | 1019.1 |
| 20260906050042 | 17 | 30 | 1.6 | 4.8 | 0.00 | 0.00 | 0.00 | 92 | 1018.9 |
| 20260906045516 | 17 | 31 | 1.6 | 4.8 | 0.00 | 0.00 | 0.00 | 92 | 1019.1 |
| 20260906045015 | 17 | 35 | 1.6 | 4.8 | 0.00 | 0.00 | 0.00 | 92 | 1018.9 |
| 20260906044538 | 17 | 346 | 1.6 | 4.8 | 0.00 | 0.00 | 0.00 | 92 | 1019.1 |
| 20260906044023 | 17 | 340 | 1.6 | 6.4 | 0.00 | 0.00 | 0.00 | 92 | 1019.1 |
| 20260906043520 | 17 | 348 | 3.2 | 6.4 | 0.00 | 0.00 | 0.00 | 92 | 1019.0 |
| 20260906043038 | 17 | 30 | 1.6 | 4.8 | 0.00 | 0.00 | 0.00 | 92 | 1018.8 |
| 20260906042518 | 17 | 11 | 1.6 | 6.4 | 0.00 | 0.00 | 0.00 | 92 | 1018.8 |
| 20260906042017 | 17 | 5 | 3.2 | 6.4 | 0.00 | 0.00 | 0.00 | 92 | 1018.9 |
| 20260906041547 | 17 | 352 | 1.6 | 6.4 | 0.00 | 0.00 | 0.00 | 92 | 1018.9 |
| 20260906041017 | 17 | 352 | 1.6 | 4.8 | 0.00 | 0.00 | 0.00 | 92 | 1018.9 |
| 20260906040516 | 17 | 322 | 1.6 | 3.2 | 0.00 | 0.00 | 0.00 | 91 | 1018.8 |
| 20260906040039 | 17 | 11 | 1.6 | 4.8 | 0.00 | 0.00 | 0.00 | 91 | 1018.7 |
| 20260906035522 | 17 | 31 | 1.6 | 6.4 | 0.00 | 0.00 | 0.00 | 91 | 1018.6 |
| 20260906035019 | 17 | 32 | 1.6 | 6.4 | 0.00 | 0.00 | 0.00 | 91 | 1018.5 |
| 20260906034543 | 17 | 60 | 3.2 | 4.8 | 0.00 | 0.00 | 0.00 | 90 | 1018.5 |
| 20260906034024 | 17 | 42 | 1.6 | 11.3 | 0.00 | 0.00 | 0.00 | 90 | 1018.5 |
| 20260906033518 | 17 | 104 | 3.2 | 11.3 | 0.00 | 0.00 | 0.00 | 90 | 1018.6 |
| 20260906033039 | 17 | 25 | 3.2 | 11.3 | 0.00 | 0.00 | 0.00 | 90 | 1018.6 |
| 20260906032518 | 17 | 54 | 4.8 | 11.3 | 0.00 | 0.00 | 0.00 | 89 | 1018.6 |
| 20260906032018 | 17 | 24 | 3.2 | 8.0 | 0.00 | 0.00 | 0.00 | 89 | 1018.6 |
| 20260906031541 | 17 | 32 | 3.2 | 8.0 | 0.00 | 0.00 | 0.00 | 89 | 1018.6 |
| 20260906031016 | 18 | 61 | 3.2 | 6.4 | 0.00 | 0.00 | 0.00 | 89 | 1018.7 |
| 20260906030522 | 18 | 46 | 3.2 | 6.4 | 0.00 | 0.00 | 0.00 | 88 | 1018.7 |
| 20260906030048 | 18 | 38 | 3.2 | 6.4 | 0.00 | 0.00 | 0.00 | 88 | 1018.8 |
| 20260906025524 | 18 | 49 | 1.6 | 6.4 | 0.00 | 0.00 | 0.00 | 88 | 1018.8 |
| 20260906025021 | 18 | 40 | 1.6 | 4.8 | 0.00 | 0.00 | 0.00 | 88 | 1018.8 |
| 20260906024605 | 18 | 34 | 1.6 | 4.8 | 0.00 | 0.00 | 0.00 | 88 | 1018.8 |
| 20260906024020 | 17 | 52 | 1.6 | 4.8 | 0.00 | 0.00 | 0.00 | 88 | 1018.7 |
| 20260906023517 | 18 | 38 | 1.6 | 4.8 | 0.00 | 0.00 | 0.00 | 88 | 1018.8 |
| 20260906023038 | 18 | 54 | 1.6 | 6.4 | 0.00 | 0.00 | 0.00 | 88 | 1018.6 |
| 20260906022521 | 18 | 38 | 3.2 | 6.4 | 0.00 | 0.00 | 0.00 | 88 | 1018.6 |
| 20260906022021 | 18 | 46 | 3.2 | 6.4 | 0.00 | 0.00 | 0.00 | 88 | 1018.5 |
| 20260906021543 | 18 | 54 | 1.6 | 6.4 | 0.00 | 0.00 | 0.00 | 88 | 1018.5 |
| 20260906021017 | 18 | 43 | 3.2 | 4.8 | 0.00 | 0.00 | 0.00 | 89 | 1018.5 |
| 20260906020520 | 18 | 57 | 1.6 | 4.8 | 0.00 | 0.00 | 0.00 | 90 | 1018.6 |
| 20260906020043 | 18 | 28 | 1.6 | 6.4 | 0.00 | 0.00 | 0.00 | 90 | 1018.6 |
| 20260906015522 | 18 | 12 | 3.2 | 6.4 | 0.00 | 0.00 | 0.00 | 90 | 1018.5 |
| 20260906015018 | 18 | 40 | 1.6 | 4.8 | 0.00 | 0.00 | 0.00 | 90 | 1018.4 |
| 20260906014549 | 18 | 39 | 0.0 | 3.2 | 0.00 | 0.00 | 0.00 | 91 | 1018.3 |
| 20260906014024 | 18 | 53 | 1.6 | 3.2 | 0.00 | 0.00 | 0.00 | 91 | 1018.3 |
| 20260906013526 | 18 | 49 | 0.0 | 3.2 | 0.00 | 0.00 | 0.00 | 92 | 1018.3 |
| 20260906013038 | 18 | 0 | 0.0 | 0.0 | 0.00 | 0.00 | 0.00 | 92 | 1018.2 |
| 20260906012519 | 18 | 0 | 0.0 | 0.0 | 0.00 | 0.00 | 0.00 | 91 | 1018.2 |
| 20260906012019 | 18 | 0 | 0.0 | 3.2 | 0.00 | 0.00 | 0.00 | 90 | 1018.1 |
| 20260906011552 | 18 | 0 | 0.0 | 3.2 | 0.00 | 0.00 | 0.00 | 91 | 1018.1 |
| 20260906011017 | 18 | 0 | 0.0 | 3.2 | 0.00 | 0.00 | 0.00 | 90 | 1018.0 |
| 20260906010524 | 18 | 53 | 0.0 | 3.2 | 0.00 | 0.00 | 0.00 | 90 | 1018.1 |
| 20260906010105 | 18 | 46 | 0.0 | 3.2 | 0.00 | 0.00 | 0.00 | 90 | 1018.1 |
| 20260906005518 | 18 | 45 | 1.6 | 4.8 | 0.00 | 0.00 | 0.00 | 91 | 1018.1 |
| 20260906005021 | 18 | 26 | 0.0 | 4.8 | 0.00 | 0.00 | 0.00 | 89 | 1018.1 |
| 20260906004546 | 19 | 47 | 1.6 | 3.2 | 0.00 | 0.00 | 0.00 | 89 | 1018.1 |
| 20260906004026 | 19 | 49 | 1.6 | 3.2 | 0.00 | 0.00 | 0.00 | 90 | 1018.1 |
| 20260906003523 | 19 | 40 | 0.0 | 3.2 | 0.00 | 0.00 | 0.00 | 90 | 1018.1 |
| 20260906003045 | 19 | 40 | 0.0 | 3.2 | 0.00 | 0.00 | 0.00 | 89 | 1018.4 |
| 20260906002519 | 20 | 39 | 1.6 | 3.2 | 0.00 | 0.00 | 0.00 | 88 | 1018.3 |
| 20260906002022 | 20 | 0 | 0.0 | 3.2 | 0.00 | 0.00 | 0.00 | 88 | 1018.3 |
| 20260906001558 | 20 | 0 | 0.0 | 4.8 | 0.00 | 0.00 | 0.00 | 87 | 1018.4 |
| 20260906001022 | 20 | 51 | 3.2 | 4.8 | 0.00 | 0.00 | 0.00 | 87 | 1018.4 |
| 20260906000520 | 20 | 64 | 1.6 | 4.8 | 0.00 | 0.00 | 0.00 | 87 | 1018.3 |
| 20260906000043 | 20 | 38 | 1.6 | 3.2 | 0.00 | 0.00 | 0.00 | 86 | 1018.3 |
| 20260905235519 | 21 | 73 | 0.0 | 4.8 | 0.00 | 0.00 | 0.00 | 86 | 1018.4 |
| 20260905235020 | 21 | 44 | 1.6 | 8.0 | 0.00 | 0.00 | 0.00 | 86 | 1018.4 |
| 20260905234541 | 21 | 49 | 1.6 | 8.0 | 0.00 | 0.00 | 0.00 | 86 | 1018.4 |
| 20260905234018 | 21 | 79 | 3.2 | 8.0 | 0.00 | 0.00 | 0.00 | 86 | 1018.4 |
| 20260905233516 | 21 | 30 | 3.2 | 8.0 | 0.00 | 0.00 | 0.00 | 86 | 1018.4 |
| 20260905233040 | 21 | 88 | 3.2 | 6.4 | 0.00 | 0.00 | 0.00 | 86 | 1018.2 |
| 20260905232519 | 21 | 86 | 1.6 | 6.4 | 0.00 | 0.00 | 0.00 | 86 | 1018.1 |
| 20260905232022 | 21 | 5 | 0.0 | 6.4 | 0.00 | 0.00 | 0.00 | 87 | 1018.2 |
| 20260905231544 | 21 | 13 | 1.6 | 8.0 | 0.00 | 0.00 | 0.00 | 87 | 1018.2 |
| 20260905231018 | 21 | 59 | 3.2 | 8.0 | 0.00 | 0.00 | 0.00 | 86 | 1018.1 |
| 20260905230518 | 21 | 46 | 4.8 | 9.7 | 0.00 | 0.00 | 0.00 | 86 | 1018.1 |
| 20260905230047 | 21 | 72 | 1.6 | 9.7 | 0.00 | 0.00 | 0.00 | 86 | 1018.1 |
| 20260905225520 | 21 | 74 | 3.2 | 12.9 | 0.00 | 0.00 | 0.00 | 85 | 1018.1 |
| 20260905225018 | 21 | 51 | 4.8 | 12.9 | 0.00 | 0.00 | 0.00 | 85 | 1018.0 |
| 20260905224543 | 21 | 57 | 4.8 | 14.5 | 0.00 | 0.00 | 0.00 | 86 | 1017.9 |
| 20260905224017 | 21 | 17 | 6.4 | 17.7 | 0.00 | 0.00 | 0.00 | 87 | 1017.9 |
| 20260905223516 | 21 | 40 | 6.4 | 17.7 | 0.00 | 0.00 | 0.00 | 87 | 1017.8 |
| 20260905223043 | 21 | 38 | 8.0 | 16.1 | 0.00 | 0.00 | 0.00 | 87 | 1017.9 |
| 20260905222519 | 21 | 57 | 4.8 | 11.3 | 0.00 | 0.00 | 0.00 | 87 | 1018.0 |
| 20260905222020 | 21 | 21 | 3.2 | 9.7 | 0.00 | 0.00 | 0.00 | 88 | 1017.9 |
| 20260905221549 | 21 | 57 | 4.8 | 14.5 | 0.00 | 0.00 | 0.00 | 89 | 1017.9 |
| 20260905221022 | 21 | 54 | 6.4 | 14.5 | 0.00 | 0.00 | 0.00 | 89 | 1017.9 |
| 20260905220517 | 21 | 23 | 4.8 | 12.9 | 0.00 | 0.00 | 0.00 | 89 | 1017.7 |
| 20260905220035 | 21 | 39 | 4.8 | 8.0 | 0.00 | 0.00 | 0.00 | 89 | 1017.7 |
| 20260905215521 | 21 | 49 | 3.2 | 9.7 | 0.00 | 0.00 | 0.00 | 89 | 1017.9 |
| 20260905215019 | 21 | 48 | 4.8 | 11.3 | 0.00 | 0.00 | 0.00 | 89 | 1017.9 |
| 20260905214541 | 21 | 75 | 1.6 | 11.3 | 0.00 | 0.00 | 0.00 | 90 | 1017.8 |
| 20260905214017 | 21 | 86 | 3.2 | 11.3 | 0.00 | 0.00 | 0.00 | 90 | 1017.7 |
| 20260905213519 | 21 | 38 | 4.8 | 11.3 | 0.00 | 0.00 | 0.00 | 90 | 1017.7 |
| 20260905213051 | 21 | 77 | 3.2 | 11.3 | 0.00 | 0.00 | 0.00 | 90 | 1017.8 |
| 20260905212519 | 21 | 42 | 4.8 | 16.1 | 0.00 | 0.00 | 0.00 | 90 | 1017.9 |
| 20260905212019 | 21 | 54 | 4.8 | 16.1 | 0.00 | 0.00 | 0.00 | 90 | 1017.8 |
| 20260905211545 | 21 | 46 | 4.8 | 14.5 | 0.00 | 0.00 | 0.00 | 89 | 1017.9 |
| 20260905211019 | 21 | 71 | 3.2 | 9.7 | 0.00 | 0.00 | 0.00 | 89 | 1017.8 |
| 20260905210521 | 21 | 41 | 3.2 | 9.7 | 0.00 | 0.00 | 0.00 | 89 | 1017.8 |
| 20260905210039 | 21 | 24 | 3.2 | 9.7 | 0.00 | 0.00 | 0.00 | 89 | 1017.8 |
| 20260905205518 | 21 | 22 | 3.2 | 9.7 | 0.00 | 0.00 | 0.00 | 90 | 1017.8 |
| 20260905205018 | 21 | 71 | 4.8 | 9.7 | 0.00 | 0.00 | 0.00 | 89 | 1017.9 |
| 20260905204537 | 21 | 44 | 3.2 | 11.3 | 0.00 | 0.00 | 0.00 | 89 | 1017.8 |
| 20260905204020 | 21 | 38 | 4.8 | 11.3 | 0.00 | 0.00 | 0.00 | 89 | 1017.8 |
| 20260905203520 | 21 | 59 | 4.8 | 9.7 | 0.00 | 0.00 | 0.00 | 89 | 1017.7 |
| 20260905203052 | 21 | 77 | 3.2 | 9.7 | 0.00 | 0.00 | 0.00 | 89 | 1017.6 |
| 20260905202526 | 21 | 50 | 3.2 | 14.5 | 0.00 | 0.00 | 0.00 | 90 | 1017.6 |
| 20260905202018 | 21 | 76 | 4.8 | 14.5 | 0.00 | 0.00 | 0.00 | 89 | 1017.7 |
| 20260905201554 | 21 | 34 | 3.2 | 9.7 | 0.00 | 0.00 | 0.00 | 89 | 1017.7 |
| 20260905201019 | 21 | 107 | 1.6 | 9.7 | 0.00 | 0.00 | 0.00 | 90 | 1017.7 |
| 20260905200520 | 21 | 40 | 4.8 | 9.7 | 0.00 | 0.00 | 0.00 | 90 | 1017.7 |
| 20260905200039 | 21 | 78 | 4.8 | 9.7 | 0.00 | 0.00 | 0.00 | 90 | 1017.7 |
| 20260905195522 | 21 | 53 | 1.6 | 12.9 | 0.00 | 0.00 | 0.00 | 91 | 1017.7 |
| 20260905195021 | 21 | 82 | 3.2 | 12.9 | 0.00 | 0.00 | 0.00 | 92 | 1017.8 |
| 20260905194535 | 21 | 59 | 6.4 | 12.9 | 0.00 | 0.00 | 0.00 | 92 | 1017.8 |
| 20260905194019 | 21 | 41 | 4.8 | 9.7 | 0.00 | 0.00 | 0.00 | 93 | 1017.8 |
| 20260905193520 | 21 | 337 | 4.8 | 8.0 | 0.00 | 0.00 | 0.00 | 93 | 1017.9 |
| 20260905193037 | 21 | 44 | 3.2 | 16.1 | 0.00 | 0.00 | 0.00 | 93 | 1017.9 |
| 20260905192519 | 21 | 64 | 4.8 | 16.1 | 0.00 | 0.00 | 0.00 | 93 | 1017.9 |
| 20260905192019 | 21 | 17 | 6.4 | 16.1 | 0.00 | 0.00 | 0.00 | 93 | 1017.9 |
| 20260905191538 | 21 | 26 | 3.2 | 9.7 | 0.00 | 0.00 | 0.00 | 93 | 1017.9 |
| 20260905191021 | 21 | 34 | 3.2 | 17.7 | 0.00 | 0.00 | 0.00 | 93 | 1017.9 |
| 20260905190517 | 21 | 40 | 4.8 | 17.7 | 0.00 | 0.00 | 0.00 | 93 | 1017.8 |
| 20260905190038 | 21 | 53 | 4.8 | 14.5 | 0.00 | 0.00 | 0.00 | 93 | 1017.7 |
| 20260905185520 | 21 | 55 | 4.8 | 17.7 | 0.00 | 0.00 | 0.00 | 93 | 1017.8 |
| 20260905185020 | 21 | 360 | 8.0 | 17.7 | 0.00 | 0.00 | 0.00 | 93 | 1017.8 |
| 20260905184545 | 21 | 48 | 4.8 | 11.3 | 0.00 | 0.00 | 0.00 | 94 | 1017.8 |
| 20260905184019 | 21 | 103 | 3.2 | 12.9 | 0.00 | 0.00 | 0.00 | 94 | 1017.8 |
| 20260905183520 | 21 | 64 | 6.4 | 12.9 | 0.00 | 0.00 | 0.00 | 94 | 1017.9 |
| 20260905183041 | 21 | 46 | 4.8 | 11.3 | 0.00 | 0.00 | 0.00 | 94 | 1017.9 |
| 20260905182518 | 21 | 46 | 4.8 | 14.5 | 0.00 | 0.00 | 0.00 | 94 | 1017.9 |
| 20260905182016 | 21 | 44 | 6.4 | 14.5 | 0.00 | 0.00 | 0.00 | 93 | 1017.9 |
| 20260905181544 | 21 | 13 | 6.4 | 14.5 | 0.00 | 0.00 | 0.00 | 93 | 1017.9 |
| 20260905181018 | 21 | 38 | 3.2 | 9.7 | 0.00 | 0.00 | 0.00 | 93 | 1017.8 |
| 20260905180518 | 21 | 55 | 4.8 | 12.9 | 0.00 | 0.00 | 0.00 | 92 | 1017.8 |
| 20260905180048 | 21 | 62 | 4.8 | 12.9 | 0.00 | 0.00 | 0.00 | 92 | 1017.9 |
| 20260905175521 | 21 | 63 | 4.8 | 8.0 | 0.00 | 0.00 | 0.00 | 91 | 1017.9 |
| 20260905175020 | 22 | 43 | 3.2 | 8.0 | 0.00 | 0.00 | 0.00 | 91 | 1017.8 |
| 20260905174535 | 22 | 86 | 4.8 | 16.1 | 0.00 | 0.00 | 0.00 | 91 | 1017.7 |
| 20260905174019 | 22 | 130 | 4.8 | 16.1 | 0.00 | 0.00 | 0.00 | 91 | 1017.6 |
| 20260905173520 | 22 | 9 | 8.0 | 14.5 | 0.00 | 0.00 | 0.00 | 91 | 1017.7 |
| 20260905173039 | 22 | 42 | 4.8 | 17.7 | 0.00 | 0.00 | 0.00 | 91 | 1017.6 |
| 20260905172516 | 21 | 40 | 9.7 | 17.7 | 0.00 | 0.00 | 0.00 | 91 | 1017.6 |
| 20260905172022 | 22 | 9 | 6.4 | 16.1 | 0.00 | 0.00 | 0.00 | 90 | 1017.7 |
| 20260905171538 | 22 | 87 | 8.0 | 14.5 | 0.00 | 0.00 | 0.00 | 90 | 1017.7 |
| 20260905171020 | 22 | 55 | 8.0 | 14.5 | 0.00 | 0.00 | 0.00 | 90 | 1017.6 |
| 20260905170520 | 22 | 33 | 3.2 | 14.5 | 0.00 | 0.00 | 0.00 | 91 | 1017.6 |
| 20260905170047 | 22 | 345 | 8.0 | 14.5 | 0.00 | 0.00 | 0.00 | 91 | 1017.6 |
| 20260905165519 | 22 | 36 | 4.8 | 14.5 | 0.00 | 0.00 | 0.00 | 91 | 1017.6 |
| 20260905165017 | 22 | 9 | 6.4 | 16.1 | 0.00 | 0.00 | 0.00 | 91 | 1017.6 |
| 20260905164541 | 22 | 331 | 6.4 | 16.1 | 0.00 | 0.00 | 0.00 | 90 | 1017.6 |
| 20260905164023 | 22 | 352 | 4.8 | 12.9 | 0.00 | 0.00 | 0.00 | 88 | 1017.5 |
| 20260905163528 | 23 | 9 | 6.4 | 12.9 | 0.00 | 0.00 | 0.00 | 87 | 1017.6 |
| 20260905163044 | 23 | 32 | 4.8 | 12.9 | 0.00 | 0.00 | 0.00 | 87 | 1017.6 |
| 20260905162522 | 22 | 17 | 4.8 | 12.9 | 0.00 | 0.00 | 0.00 | 87 | 1017.6 |
| 20260905162018 | 22 | 51 | 4.8 | 11.3 | 0.00 | 0.00 | 0.00 | 87 | 1017.6 |
| 20260905161544 | 22 | 323 | 3.2 | 12.9 | 0.00 | 0.00 | 0.00 | 87 | 1017.6 |
| 20260905161026 | 22 | 53 | 4.8 | 12.9 | 0.00 | 0.00 | 0.00 | 87 | 1017.6 |
| 20260905160525 | 23 | 360 | 4.8 | 14.5 | 0.00 | 0.00 | 0.00 | 86 | 1017.6 |
| 20260905160040 | 22 | 9 | 4.8 | 14.5 | 0.00 | 0.00 | 0.00 | 87 | 1017.6 |
| 20260905155528 | 22 | 5 | 3.2 | 14.5 | 0.00 | 0.00 | 0.00 | 88 | 1017.6 |
| 20260905155022 | 22 | 69 | 6.4 | 14.5 | 0.00 | 0.00 | 0.00 | 87 | 1017.5 |
| 20260905154544 | 22 | 63 | 3.2 | 12.9 | 0.00 | 0.00 | 0.00 | 88 | 1017.4 |
| 20260905154022 | 22 | 13 | 4.8 | 12.9 | 0.00 | 0.00 | 0.00 | 89 | 1017.4 |
| 20260905153518 | 22 | 57 | 4.8 | 12.9 | 0.00 | 0.00 | 0.00 | 89 | 1017.4 |
| 20260905153041 | 22 | 52 | 3.2 | 16.1 | 0.00 | 0.00 | 0.00 | 89 | 1017.4 |
| 20260905152521 | 22 | 19 | 4.8 | 16.1 | 0.00 | 0.00 | 0.00 | 89 | 1017.3 |
| 20260905152020 | 22 | 37 | 4.8 | 14.5 | 0.00 | 0.00 | 0.00 | 89 | 1017.3 |
| 20260905151548 | 22 | 59 | 4.8 | 12.9 | 0.00 | 0.00 | 0.00 | 90 | 1017.2 |
| 20260905151020 | 22 | 10 | 6.4 | 12.9 | 0.00 | 0.00 | 0.00 | 90 | 1017.3 |
| 20260905150519 | 22 | 20 | 3.2 | 12.9 | 0.00 | 0.00 | 0.00 | 90 | 1017.2 |
| 20260905150048 | 22 | 64 | 4.8 | 12.9 | 0.00 | 0.00 | 0.00 | 90 | 1017.2 |